TimeMDT,TemperatureF,Dew PointF,Humidity,Sea Level PressureIn,VisibilityMPH,Wind Direction,Wind SpeedMPH,Gust SpeedMPH,PrecipitationIn,Events,Conditions,WindDirDegrees,DateUTC
12:53 AM,28.9,12.0,49,29.94,10.0,Calm,Calm,-,N/A,,Clear,0,2013-10-21 06:53:00
1:53 AM,28.9,14.0,54,29.95,10.0,Calm,Calm,-,N/A,,Clear,0,2013-10-21 07:53:00
2:53 AM,28.0,14.0,56,29.96,10.0,Calm,Calm,-,N/A,,Clear,0,2013-10-21 08:53:00
3:53 AM,27.0,12.9,56,29.96,10.0,Calm,Calm,-,N/A,,Clear,0,2013-10-21 09:53:00
4:53 AM,24.1,12.9,62,29.99,10.0,SSW,4.6,-,N/A,,Clear,200,2013-10-21 10:53:00
5:53 AM,24.1,12.9,62,30.01,10.0,Calm,Calm,-,N/A,,Clear,0,2013-10-21 11:53:00
6:53 AM,25.0,12.9,60,30.06,10.0,Calm,Calm,-,N/A,,Clear,0,2013-10-21 12:53:00
7:53 AM,24.1,12.9,62,30.11,10.0,Calm,Calm,-,N/A,,Clear,0,2013-10-21 13:53:00
8:53 AM,35.1,15.1,44,30.11,10.0,Calm,Calm,-,N/A,,Clear,0,2013-10-21 14:53:00
9:53 AM,48.9,14.0,25,30.07,10.0,Calm,Calm,-,N/A,,Clear,0,2013-10-21 15:53:00
10:53 AM,54.0,14.0,21,30.06,10.0,Calm,Calm,-,N/A,,Clear,0,2013-10-21 16:53:00
11:53 AM,57.0,14.0,18,30.06,10.0,Calm,Calm,-,N/A,,Clear,0,2013-10-21 17:53:00
12:53 PM,59.0,15.1,18,30.06,10.0,Variable,5.8,-,N/A,,Clear,0,2013-10-21 18:53:00
1:53 PM,61.0,16.0,17,30.04,10.0,Variable,4.6,-,N/A,,Clear,0,2013-10-21 19:53:00
2:53 PM,61.0,15.1,17,30.03,10.0,East,8.1,-,N/A,,Clear,80,2013-10-21 20:53:00
3:53 PM,61.0,16.0,17,30.04,10.0,Variable,3.5,-,N/A,,Clear,0,2013-10-21 21:53:00
4:53 PM,60.1,16.0,18,30.06,10.0,East,8.1,17.3,N/A,,Clear,100,2013-10-21 22:53:00
5:53 PM,57.0,15.1,19,30.08,10.0,East,5.8,-,N/A,,Clear,80,2013-10-21 23:53:00
6:53 PM,52.0,12.9,21,30.12,10.0,East,4.6,-,N/A,,Clear,100,2013-10-22 00:53:00
7:53 PM,46.9,12.0,24,30.17,10.0,Calm,Calm,-,N/A,,Clear,0,2013-10-22 01:53:00
8:53 PM,39.9,12.9,33,30.18,10.0,North,3.5,-,N/A,,Clear,360,2013-10-22 02:53:00
9:53 PM,37.0,12.9,37,30.15,10.0,Calm,Calm,-,N/A,,Clear,0,2013-10-22 03:53:00
10:53 PM,32.0,12.0,44,30.16,10.0,Calm,Calm,-,N/A,,Clear,0,2013-10-22 04:53:00
11:53 PM,30.0,12.9,49,30.16,10.0,Calm,Calm,-,N/A,,Clear,0,2013-10-22 05:53:00